TimeEST,TemperatureF,Dew PointF,Humidity,Sea Level PressureIn,VisibilityMPH,Wind Direction,Wind SpeedMPH,Gust SpeedMPH,PrecipitationIn,Events,Conditions,WindDirDegrees,DateUTC
12:15 AM,32.5,32.0,98,29.95,7.0,West,6.9,-,N/A,,Overcast,280,2012-12-11 05:15:00
12:35 AM,32.5,31.6,96,29.95,7.0,West,8.1,-,N/A,,Overcast,280,2012-12-11 05:35:00
12:55 AM,32.5,31.6,96,29.95,7.0,West,9.2,-,N/A,,Overcast,270,2012-12-11 05:55:00
1:15 AM,32.5,31.6,96,29.95,7.0,West,3.5,-,N/A,,Overcast,270,2012-12-11 06:15:00
1:35 AM,32.5,31.8,97,29.96,7.0,West,10.4,-,N/A,,Overcast,280,2012-12-11 06:35:00
1:55 AM,32.5,31.6,96,29.96,7.0,West,6.9,-,N/A,,Overcast,260,2012-12-11 06:55:00
2:15 AM,32.5,31.8,97,29.97,7.0,West,6.9,-,N/A,,Overcast,260,2012-12-11 07:15:00
2:35 AM,32.5,32.0,98,29.97,7.0,West,4.6,-,N/A,,Overcast,270,2012-12-11 07:35:00
2:55 AM,32.5,32.0,98,29.98,7.0,West,9.2,-,N/A,,Overcast,280,2012-12-11 07:55:00
3:15 AM,32.5,31.6,96,29.99,7.0,West,6.9,-,N/A,,Overcast,280,2012-12-11 08:15:00
3:35 AM,32.5,31.1,94,29.99,10.0,West,8.1,-,N/A,,Overcast,280,2012-12-11 08:35:00
3:55 AM,32.5,31.1,94,29.99,10.0,West,5.8,-,N/A,,Overcast,280,2012-12-11 08:55:00
4:15 AM,32.5,31.1,94,30.00,10.0,West,6.9,-,N/A,,Overcast,280,2012-12-11 09:15:00
4:35 AM,32.5,30.9,94,30.00,10.0,West,4.6,-,N/A,,Overcast,270,2012-12-11 09:35:00
4:55 AM,32.5,31.1,94,30.02,10.0,West,9.2,-,N/A,,Overcast,260,2012-12-11 09:55:00
5:15 AM,32.5,30.9,94,30.02,10.0,West,9.2,-,N/A,,Overcast,280,2012-12-11 10:15:00
5:35 AM,32.5,30.7,93,30.02,10.0,WNW,8.1,-,N/A,,Overcast,290,2012-12-11 10:35:00
5:55 AM,32.5,30.7,93,30.03,10.0,WNW,5.8,-,N/A,Snow,Light Snow,290,2012-12-11 10:55:00
6:15 AM,32.5,30.2,91,30.03,10.0,WNW,10.4,-,N/A,,Overcast,290,2012-12-11 11:15:00
6:35 AM,32.5,30.0,90,30.03,10.0,WNW,6.9,-,N/A,,Overcast,290,2012-12-11 11:35:00
6:55 AM,32.5,29.8,90,30.04,10.0,West,9.2,-,N/A,,Overcast,280,2012-12-11 11:55:00
7:15 AM,32.5,29.8,90,30.05,10.0,WNW,5.8,-,N/A,,Overcast,300,2012-12-11 12:15:00
7:35 AM,32.5,30.0,90,30.06,10.0,WNW,3.5,-,N/A,,Overcast,290,2012-12-11 12:35:00
7:55 AM,32.5,30.2,91,30.07,10.0,West,10.4,-,N/A,,Overcast,260,2012-12-11 12:55:00
8:15 AM,32.5,29.7,89,30.08,10.0,WSW,9.2,-,N/A,,Overcast,250,2012-12-11 13:15:00
8:35 AM,32.5,29.7,89,30.09,10.0,West,8.1,-,N/A,,Overcast,260,2012-12-11 13:35:00
8:55 AM,32.5,29.5,88,30.10,10.0,West,11.5,-,N/A,,Overcast,260,2012-12-11 13:55:00
9:15 AM,32.5,28.8,86,30.11,10.0,West,4.6,-,N/A,,Overcast,280,2012-12-11 14:15:00
9:35 AM,32.5,28.6,85,30.11,10.0,West,5.8,-,N/A,,Overcast,280,2012-12-11 14:35:00
9:55 AM,32.5,28.2,84,30.13,10.0,West,3.5,-,N/A,,Overcast,280,2012-12-11 14:55:00
10:15 AM,32.5,28.4,85,30.13,10.0,West,4.6,-,N/A,,Overcast,280,2012-12-11 15:15:00
10:35 AM,32.5,27.7,82,30.14,10.0,WSW,6.9,-,N/A,,Overcast,250,2012-12-11 15:35:00
10:55 AM,32.5,27.5,82,30.15,10.0,SW,9.2,-,N/A,,Overcast,220,2012-12-11 15:55:00
11:15 AM,32.5,27.5,82,30.15,10.0,SW,9.2,-,N/A,,Overcast,220,2012-12-11 16:15:00
11:35 AM,32.5,27.3,81,30.15,10.0,WSW,6.9,-,N/A,,Overcast,250,2012-12-11 16:35:00
11:55 AM,32.5,27.5,82,30.15,10.0,WSW,6.9,-,N/A,,Overcast,250,2012-12-11 16:55:00
12:15 PM,32.5,27.9,83,30.15,10.0,WSW,8.1,-,N/A,,Overcast,250,2012-12-11 17:15:00
12:35 PM,32.5,27.5,82,30.15,10.0,WSW,8.1,-,N/A,,Overcast,240,2012-12-11 17:35:00
12:55 PM,32.5,26.1,77,30.14,10.0,SW,12.7,-,N/A,,Overcast,230,2012-12-11 17:55:00
1:15 PM,32.5,26.6,79,30.15,10.0,WSW,9.2,-,N/A,,Overcast,250,2012-12-11 18:15:00
1:35 PM,32.5,26.8,79,30.15,10.0,WSW,8.1,-,N/A,,Overcast,240,2012-12-11 18:35:00
1:55 PM,32.5,27.3,81,30.15,10.0,West,5.8,-,N/A,,Overcast,260,2012-12-11 18:55:00
2:15 PM,33.4,27.5,79,30.14,10.0,West,9.2,-,N/A,,Overcast,270,2012-12-11 19:15:00
2:35 PM,34.5,26.4,72,30.14,10.0,SW,5.8,-,N/A,,Overcast,220,2012-12-11 19:35:00
2:55 PM,33.8,25.9,73,30.14,10.0,WSW,6.9,-,N/A,,Overcast,240,2012-12-11 19:55:00
3:15 PM,35.1,26.4,71,30.14,10.0,SW,8.1,-,N/A,,Overcast,230,2012-12-11 20:15:00
3:35 PM,34.9,27.0,73,30.15,10.0,SW,8.1,-,N/A,,Overcast,220,2012-12-11 20:35:00
3:55 PM,35.1,27.3,73,30.15,10.0,SW,8.1,-,N/A,,Overcast,220,2012-12-11 20:55:00
4:15 PM,35.1,26.1,70,30.16,10.0,WSW,4.6,-,N/A,,Mostly Cloudy,250,2012-12-11 21:15:00
4:35 PM,34.3,26.2,72,30.17,10.0,SW,10.4,-,N/A,,Scattered Clouds,230,2012-12-11 21:35:00
4:55 PM,32.5,26.1,77,30.18,10.0,SW,9.2,-,N/A,,Clear,230,2012-12-11 21:55:00
5:15 PM,32.5,26.6,79,30.18,10.0,WSW,4.6,-,N/A,,Clear,240,2012-12-11 22:15:00
5:35 PM,30.7,26.2,83,30.18,10.0,SW,4.6,-,N/A,,Clear,230,2012-12-11 22:35:00
5:55 PM,31.6,27.3,84,30.18,10.0,Calm,Calm,-,N/A,,Clear,0,2012-12-11 22:55:00
6:15 PM,28.8,25.5,88,30.18,10.0,Calm,Calm,-,N/A,,Clear,0,2012-12-11 23:15:00
6:35 PM,27.9,25.5,91,30.19,10.0,Calm,Calm,-,N/A,,Clear,0,2012-12-11 23:35:00
6:55 PM,30.2,26.8,87,30.19,10.0,SSW,3.5,-,N/A,,Clear,210,2012-12-11 23:55:00
7:15 PM,28.8,25.7,88,30.20,10.0,SW,4.6,-,N/A,,Clear,230,2012-12-12 00:15:00
7:35 PM,28.4,25.9,90,30.20,10.0,WSW,3.5,-,N/A,,Clear,240,2012-12-12 00:35:00
7:55 PM,27.9,25.3,90,30.20,10.0,SSW,3.5,-,N/A,,Clear,200,2012-12-12 00:55:00
8:15 PM,28.0,25.7,91,30.21,10.0,Calm,Calm,-,N/A,,Clear,0,2012-12-12 01:15:00
8:35 PM,27.9,26.1,93,30.21,10.0,Calm,Calm,-,N/A,,Clear,0,2012-12-12 01:35:00
8:55 PM,27.9,27.0,96,30.22,10.0,Calm,Calm,-,N/A,,Clear,0,2012-12-12 01:55:00
9:15 PM,27.9,27.5,99,30.22,10.0,Calm,Calm,-,N/A,,Clear,0,2012-12-12 02:15:00
9:35 PM,27.9,27.7,99,30.22,10.0,Calm,Calm,-,N/A,,Clear,0,2012-12-12 02:35:00
9:55 PM,27.9,27.9,100,30.23,10.0,WSW,3.5,-,N/A,,Clear,250,2012-12-12 02:55:00
10:15 PM,27.9,27.7,99,30.24,10.0,Calm,Calm,-,N/A,,Clear,0,2012-12-12 03:15:00
10:35 PM,25.3,25.2,99,30.24,10.0,Calm,Calm,-,N/A,,Clear,0,2012-12-12 03:35:00
10:55 PM,26.4,26.4,100,30.25,10.0,Calm,Calm,-,N/A,,Clear,0,2012-12-12 03:55:00
11:15 PM,25.3,25.3,100,30.25,7.0,Calm,Calm,-,N/A,,Clear,0,2012-12-12 04:15:00
11:35 PM,27.9,27.9,100,30.25,7.0,Calm,Calm,-,N/A,,Clear,0,2012-12-12 04:35:00
11:55 PM,25.3,25.3,100,30.26,5.0,Calm,Calm,-,N/A,,Clear,0,2012-12-12 04:55:00